Topeka, KS

12:40 AM CST on December 04, 2016 (GMT -0600)
Forbes

Weather History for KFOE - October, 2011

Change the Weather History Date:

Monday, October 10, 2011

  Actual Average Record
Temperature  
Mean Temperature 66 °F -  
Max Temperature 73 °F 69 °F 95 °F (1963)
Min Temperature 59 °F 42 °F 26 °F (2000)
Cooling Degree Days 1    
Growing Degree Days 16 (Base 50)    
Moisture  
Dew Point 58 °F    
Average Humidity 84    
Maximum Humidity 94    
Minimum Humidity 57    
Precipitation  
Precipitation 0.16 in - - ()
Sea Level Pressure  
Sea Level Pressure 30.03 in    
Wind  
Wind Speed 3 mph (North)    
Max Wind Speed 9 mph    
Max Gust Speed 79 mph    
Visibility 9 miles    
Events Rain    
Averages and records for this station are not official NWS values.
T = Trace of Precipitation, MM = Missing Value Source: NWS Daily Summary

Daily Weather History Graph

Daily Weather History Graph

Search for Another Location

Airport or City:

Trip Planner

Search our weather history database for the weather conditions in past years. The results will help you decide how hot, cold, wet, or windy it might be!

Date:

Astronomy

Oct. 10, 2011 Rise Set
Actual Time 7:26 AM CDT 6:51 PM CDT
Civil Twilight 7:00 AM CDT 7:18 PM CDT
Nautical Twilight 6:29 AM CDT 7:49 PM CDT
Astronomical Twilight 5:58 AM CDT 8:20 PM CDT
Moon 5:56 PM CDT (10/10) 6:09 AM CDT (10/10)
Length of Visible Light 12h 18m
Length of Day
11h 24m
Waxing Gibbous, 98% of the Moon is Illuminated
Oct 10
Waxing Gibbous
Oct 11
Full
Oct 19
Last Quarter
Oct 26
New
Nov 2
First Quarter

Hourly Weather History & Observations

Time (CDT) Temp. Dew Point Humidity Pressure Visibility Wind Dir Wind Speed Gust Speed Precip Events Conditions
12:53 AM 62.1 °F 57.9 °F 86% 30.06 in 10.0 mi NNW 4.6 mph - N/A   Overcast
1:53 AM 63.0 °F 59.0 °F 87% 30.06 in 10.0 mi WNW 4.6 mph - N/A   Overcast
2:53 AM 62.1 °F 59.0 °F 90% 30.05 in 10.0 mi NW 5.8 mph - 0.00 in Rain Light Rain
3:51 AM 60.8 °F 57.2 °F 88% 30.06 in 10.0 mi NW 5.8 mph 79.4 mph 0.00 in Rain Light Rain
3:53 AM 61.0 °F 57.9 °F 90% 30.04 in 10.0 mi NW 4.6 mph 79.4 mph 0.01 in Rain Light Rain
4:53 AM 60.1 °F 57.9 °F 93% 30.04 in 10.0 mi Calm Calm - 0.00 in Rain Light Rain
5:11 AM 60.8 °F 57.2 °F 88% 30.06 in 5.0 mi NNW 3.5 mph - 0.03 in Rain Rain
5:22 AM 60.8 °F 57.2 °F 88% 30.06 in 2.5 mi NW 3.5 mph - 0.10 in Rain Rain
5:30 AM 60.8 °F 57.2 °F 88% 30.06 in 7.0 mi North 3.5 mph - 0.10 in Rain Light Rain
5:42 AM 59.0 °F 57.2 °F 94% 30.06 in 10.0 mi Calm Calm - 0.11 in Rain Light Rain
5:53 AM 59.0 °F 57.0 °F 93% 30.04 in 6.0 mi Calm Calm - 0.13 in Rain Rain
6:42 AM 59.0 °F 57.2 °F 94% 30.06 in 10.0 mi ENE 3.5 mph - 0.02 in   Mostly Cloudy
6:53 AM 59.0 °F 57.0 °F 93% 30.04 in 10.0 mi Calm Calm - 0.02 in   Mostly Cloudy
7:22 AM 59.0 °F 57.2 °F 94% 30.06 in 10.0 mi Calm Calm - N/A   Overcast
8:53 AM 60.1 °F 57.9 °F 93% 30.06 in 10.0 mi Calm Calm - N/A   Overcast
9:08 AM 60.8 °F 57.2 °F 88% 30.08 in 10.0 mi Calm Calm - N/A   Overcast
9:39 AM 60.8 °F 57.2 °F 88% 30.08 in 10.0 mi NW 3.5 mph - N/A   Overcast
9:53 AM 62.1 °F 57.9 °F 86% 30.07 in 10.0 mi NNW 3.5 mph - N/A   Overcast
11:12 AM 64.4 °F 57.2 °F 77% 30.07 in 10.0 mi Calm Calm - N/A   Mostly Cloudy
11:53 AM 66.9 °F 59.0 °F 76% 30.06 in 10.0 mi Calm Calm - N/A   Mostly Cloudy
12:36 PM 66.2 °F 57.2 °F 73% 30.06 in 10.0 mi West 4.6 mph - N/A   Mostly Cloudy
1:53 PM 71.1 °F 55.9 °F 59% 30.01 in 10.0 mi Variable 3.5 mph - N/A   Mostly Cloudy
2:53 PM 71.1 °F 55.9 °F 59% 29.98 in 10.0 mi Calm Calm - N/A   Overcast
3:53 PM 73.0 °F 57.0 °F 57% 29.97 in 10.0 mi Calm Calm - N/A   Overcast
5:53 PM 70.0 °F 57.9 °F 65% 29.95 in 10.0 mi SE 9.2 mph - N/A   Partly Cloudy
6:53 PM 68.0 °F 59.0 °F 73% 29.96 in 10.0 mi SE 8.1 mph - N/A   Mostly Cloudy
7:53 PM 64.0 °F 59.0 °F 84% 29.96 in 10.0 mi ESE 4.6 mph - N/A   Clear
8:53 PM 61.0 °F 57.9 °F 90% 29.97 in 10.0 mi SE 3.5 mph - N/A   Clear
9:53 PM 60.1 °F 57.9 °F 93% 29.97 in 10.0 mi ESE 5.8 mph - N/A   Clear
10:53 PM 59.0 °F 57.0 °F 93% 29.97 in 7.0 mi SE 4.6 mph - N/A   Clear
11:53 PM 59.0 °F 57.0 °F 93% 29.96 in 7.0 mi SE 5.8 mph - N/A   Clear